Tracking 25378 objects as of 22-Jan-2022
HD Live streaming from Space Station
objects crossing your sky now

STARLINK-2603

Track STARLINK-2603 now!
10-day predictions
STARLINK-2603 is classified as:


NORAD ID: 48375
Int'l Code: 2021-038Y
Perigee: 553.2 km
Apogee: 555.7 km
Inclination: 53.1 °
Period: 95.6 minutes
Semi major axis: 6925 km
RCS: Unknown
Launch date: May 4, 2021
Source: United States (US)
Launch site: AIR FORCE EASTERN TEST RANGE (AFETR)
aabbcc
Your satellite tracking list
Your tracking list is empty




NASA's NSSDC Master Catalog

Two Line Element Set (TLE):
1 48375U 21038Y   22021.41629219 -.00003855  00000-0 -24014-3 0  9999
2 48375  53.0542 282.5291 0001808  63.1116 297.0058 15.06379884 39837
Source of the keplerian elements: AFSPC